This demonstration page uses our WeatherBlox Daily Observations layout. Learn more.

41.55636, -103.73856

Hourly Observations for March 19, 2019

Temp ( °F °C ) Dew Point ( °F °C ) Humidity (%) Winds ( mph kmh ) Pressure ( in mb ) Visibility ( mi km ) Precip ( " mm )
12:58 am 00:58 Mostly Cloudy 36 2 29 -1.8 76 76 NW 6 9 30.28 1025 10 16.0934 0 0
1:58 am 01:58 Mostly Cloudy 34 1.1 29 -1.9 81 81 NNW 8 13 30.29 1026 10 16.0934 0 0
2:58 am 02:58 Cloudy 33 0.8 29 -1.9 82 82 NNW 8 13 30.29 1026 10 16.0934 0 0
3:58 am 03:58 Mostly Cloudy 33 0.4 28 -2.5 81 81 NW 10 17 30.29 1026 10 16.0934 0 0
4:58 am 04:58 Mostly Cloudy 31 -0.6 27 -2.7 86 86 WNW 8 13 30.27 1025 10 16.0934 0 0
5:58 am 05:58 Mostly Cloudy 30 -1.1 27 -3 87 87 WNW 8 13 30.27 1025 10 16.0934 0 0
6:58 am 06:58 Partly Cloudy 29 -1.4 26 -3.2 88 88 WNW 12 19 30.26 1025 10 16.0934 0 0
7:58 am 07:58 Clear 29 -1.9 25 -3.8 87 87 W 8 13 30.26 1025 10 16.0934 0 0
8:58 am 08:58 Mostly Cloudy 29 -1.9 25 -3.7 88 88 WNW 9 15 30.26 1025 10 16.0934 0 0
9:58 am 09:58 Mostly Clear 29 -1.4 24 -4.6 79 79 NW 14 22 30.22 1023 10 16.0934 0 0
10:58 am 10:58 Mostly Cloudy 31 -0.6 24 -4.4 76 76 NNW 14 22 30.26 1025 10 16.0934 0 0
11:58 am 11:58 Partly Cloudy 29 -1.4 23 -5.2 76 76 NW 13 20 30.27 1025 10 16.0934 0 0
12:58 pm 12:58 Mostly Clear 30 -1.1 22 -5.6 72 72 NNW 14 22 30.27 1025 10 16.0934 0 0
1:58 pm 13:58 Sunny 30 -1.2 22 -5.6 72 72 N 15 24 30.31 1026 10 16.0934 0 0
2:58 pm 14:58 Mostly Cloudy 30 -1 23 -5 75 75 NNW 16 26 30.32 1027 10 16.0934 0 0
3:58 pm 15:58 Mostly Sunny 31 -0.4 25 -4.1 76 76 NNW 16 26 30.33 1027 10 16.0934 0 0
4:59 pm 16:59 Mostly Cloudy 33 0.6 24 -4.7 68 68 NNW 18 30 30.35 1028 10 16.0934 0 0
5:58 pm 17:58 Sunny 33 0.8 24 -4.6 68 68 NNW 17 28 30.35 1028 10 16.0934 0 0
6:58 pm 18:58 Mostly Cloudy 35 1.6 22 -5.3 61 61 NNW 16 26 30.35 1028 10 16.0934 0 0
7:58 pm 19:58 Partly Cloudy 35 1.7 23 -5.1 61 61 NNW 20 31 30.34 1027 10 16.0934 0 0
8:58 pm 20:58 Mostly Cloudy 35 1.6 22 -5.3 61 61 NNW 17 28 30.33 1027 10 16.0934 0 0
9:58 pm 21:58 Mostly Cloudy 35 1.8 23 -5.2 60 60 N 18 30 30.33 1027 10 16.0934 0 0
11:58 pm 23:58 Sunny 35 1.6 21 -5.9 58 58 N 17 28 30.33 1027 10 16.0934 0 0

Powered by AerisWeather